Dewpoint
69 70 69 70 70 70 70 70 69 69 70 69 69 68 66 64 63 64 66 72 71 71 73 71 72 72 70 71 71 70 69 69 70 68 68 68 68 68 68 68 68 68 68
70 70 70 70 70 70 70 69 69 69 69 69 68 66 66 67 66 66 66 71 72 71 72 71 71 71 71 71 71 72 71 70 71 70 70 70 70 70 68 68 70 70 71
70 70 69 69 69 70 70 69 70 70 70 69 69 69 69 69 68 68 68 69 71 72 71 72 70 72 72 71 71 72 73 72 71 72 72 72 71 71 70 70 70 71 71
70 70 69 70 70 70 71 70 70 69 70 69 68 68 69 70 70 69 70 69 70 71 71 70 69 69 71 72 73 72 73 73 72 72 72 72 72 72 72 72 72 72 72
71 70 70 70 70 70 70 70 70 69 66 66 65 69 69 69 70 71 71 71 70 71 71 71 69 70 69 70 73 74 73 73 72 73 73 73 73 73 73 73 73 72 73
70 70 70 71 70 70 70 71 69 70 68 67 68 69 70 69 67 68 71 72 72 71 71 72 72 71 70 71 71 72 72 72 72 72 72 73 73 73 73 73 73 73 73
71 69 70 70 70 70 69 70 69 69 68 70 68 67 68 68 65 68 69 68 68 71 71 71 70 70 68 70 71 71 70 71 71 71 71 72 72 74 73 73 73 73 73
71 72 70 70 70 70 70 69 69 69 69 69 66 67 63 65 66 65 69 67 68 68 68 67 69 68 69 70 71 72 70 71 71 72 72 72 72 72 73 74 73 74 73
69 71 71 70 69 71 70 70 70 69 67 67 69 66 62 60 63 66 62 67 69 67 68 68 66 67 69 70 68 68 72 72 71 72 72 72 72 72 72 70 73 74 73
71 73 72 72 72 72 71 71 71 70 68 66 68 69 68 65 62 59 65 65 66 66 67 69 68 69 69 69 68 69 68 72 72 71 72 73 73 73 73 71 71 72 70
72 71 70 71 71 70 71 71 70 69 69 68 68 68 69 68 68 66 62 62 65 66 69 69 71 69 69 71 70 70 69 71 72 72 72 73 73 73 73 70 69 68 69
71 70 70 70 68 66 67 67 66 66 66 70 68 68 66 66 63 66 65 64 64 62 63 68 67 68 68 71 72 71 70 72 71 70 69 70 73 73 73 72 70 69 68
70 69 68 65 64 64 64 64 65 63 63 62 62 63 64 63 62 61 64 63 64 57 57 64 67 64 68 72 71 70 71 69 69 71 71 70 70 72 72 71 71 71 71
70 68 63 62 63 64 63 65 64 64 63 63 63 63 62 63 62 61 60 59 55 56 58 59 67 69 70 71 70 71 70 70 71 71 71 70 71 72 72 71 70 70 70
65 62 61 63 64 62 63 63 61 62 61 62 61 61 61 62 62 62 61 60 57 53 54 58 58 63 64 68 70 71 71 70 70 70 70 70 70 71 71 71 71 71 71
62 61 63 62 62 62 62 61 60 62 59 61 62 62 63 64 64 64 64 62 60 57 54 58 59 60 62 60 62 64 65 68 70 70 70 69 69 69 69 69 70 71 71
61 62 62 62 63 62 62 61 61 61 60 60 63 62 62 63 62 62 62 63 62 62 59 59 60 61 61 61 62 63 63 64 65 68 69 69 69 69 69 69 70 69 69
62 61 62 61 62 61 60 61 60 60 59 61 61 61 62 62 60 60 59 61 59 62 61 59 60 59 60 64 64 62 63 64 65 63 65 67 69 69 69 68 68 69 68
61 63 62 62 62 60 59 61 59 58 57 58 60 61 62 60 59 57 57 59 58 59 60 60 60 61 62 64 63 63 63 62 64 64 67 67 69 68 68 68 67 67 67
61 61 62 61 61 60 60 59 60 59 57 56 55 59 60 60 59 56 57 58 58 57 59 59 60 61 63 64 64 62 61 63 63 63 65 68 69 68 68 67 66 66 66
61 61 61 61 60 58 60 58 56 57 57 58 55 54 52 59 61 58 58 58 58 57 57 58 59 60 61 61 61 61 61 62 62 63 62 67 67 67 67 67 66 65 64
61 60 60 60 59 56 56 56 55 54 56 57 56 54 54 59 59 60 58 56 60 59 57 57 59 60 60 60 59 57 57 57 57 62 61 62 65 64 64 64 64 64 63
60 60 60 61 60 55 57 56 57 57 56 55 57 56 52 59 58 57 55 54 55 58 59 58 58 59 60 59 57 55 55 55 56 59 62 60 65 62 62 62 62 62 62
60 60 60 60 59 58 57 57 57 57 57 56 56 56 55 53 55 54 50 49 52 56 54 58 60 60 61 59 56 56 56 58 59 58 57 58 62 62 61 60 61 61 59
60 61 60 59 57 58 59 57 57 57 57 55 51 50 55 53 55 52 50 48 48 49 55 54 53 52 54 58 57 55 57 55 54 56 52 54 57 60 59 57 57 59 56
60 60 60 60 59 59 58 58 57 57 55 52 50 48 54 52 55 51 49 48 45 44 51 51 51 50 51 52 57 56 57 53 52 54 53 50 53 51 55 62 59 56 56
Wind_Speed
15 15 13 12 12 10 11 12 12 12 13 15 14 16 16 12 11 10 13 24 24 24 22 21 21 21 20 20 19 18 18 17 17 17 16 17 16 15 13 12 12 11 11
11 11 13 14 14 15 14 10 13 15 16 15 14 15 15 14 10 9 12 17 26 23 25 24 24 23 22 21 21 21 21 20 19 19 17 17 17 16 15 15 14 13 13
8 7 7 9 13 13 14 12 10 10 12 8 11 11 10 10 9 10 11 11 19 25 26 25 27 26 24 23 23 22 22 21 21 21 20 19 18 18 17 16 14 15 13
7 7 7 9 10 12 13 12 11 11 9 7 8 11 10 9 13 6 6 7 10 13 19 25 23 23 25 26 26 26 25 24 23 23 22 21 20 20 19 18 17 14 15
9 6 5 5 7 7 10 9 7 5 5 7 9 11 11 11 8 2 12 14 14 8 6 10 19 19 25 27 27 26 26 26 26 25 24 22 22 22 21 19 18 16 16
8 8 4 5 4 5 8 4 6 4 6 10 9 11 10 6 10 5 4 7 8 9 7 9 14 9 7 13 24 25 23 26 26 26 26 25 23 23 22 20 20 18 18
4 5 3 1 1 3 4 3 2 4 5 4 5 5 1 2 5 6 5 3 2 5 10 8 9 8 5 5 8 22 20 25 26 26 27 26 27 24 24 22 22 20 19
0 2 3 4 4 5 2 3 4 3 3 2 3 1 3 1 1 4 4 6 5 7 7 13 13 8 5 7 5 20 25 21 26 28 29 28 28 27 26 26 24 23 21
4 4 2 1 2 1 2 3 3 6 4 2 2 1 2 2 4 2 4 7 9 9 8 5 1 5 1 6 3 10 24 22 25 25 28 31 27 27 29 29 26 26 25
3 8 9 6 8 4 4 3 5 1 4 1 2 4 2 2 1 5 2 1 8 13 11 12 8 6 8 7 15 23 25 26 23 25 25 29 28 28 29 32 29 30 28
4 9 8 8 9 7 7 7 5 5 4 3 3 2 2 1 1 1 5 5 6 7 10 14 11 9 12 17 19 19 19 27 24 22 19 21 27 29 30 30 29 29 29
6 8 9 9 9 7 7 5 5 5 3 3 4 4 4 3 4 2 4 8 7 6 5 11 14 12 11 14 17 20 19 26 27 19 19 20 24 29 30 30 28 28 27
5 6 8 9 7 7 7 7 6 8 9 8 5 4 5 5 2 3 1 3 3 4 5 5 8 10 10 12 14 20 16 22 22 22 24 21 24 28 27 29 28 27 26
10 7 9 10 9 8 8 7 7 7 7 10 9 7 6 5 3 3 2 1 0 4 4 4 6 3 3 8 14 15 12 19 21 22 19 22 26 26 25 28 28 28 27
11 11 10 11 9 7 7 6 6 6 5 4 5 6 5 4 5 3 4 2 2 1 1 5 3 3 4 3 10 11 14 15 20 19 19 19 19 19 19 18 19 20 20
11 11 11 11 8 7 6 5 4 3 3 3 3 6 7 5 6 7 6 4 2 3 2 3 2 4 9 9 9 8 9 12 15 19 20 20 19 18 18 18 17 15 14
11 10 10 8 9 8 5 5 4 4 4 4 5 5 5 4 7 9 9 8 10 4 2 2 4 4 4 8 8 10 8 6 10 15 23 24 20 18 18 13 13 12 11
11 11 10 8 9 7 5 5 5 5 8 5 3 4 5 4 7 8 8 9 10 8 4 3 3 4 4 7 4 4 1 5 7 9 10 12 17 18 11 12 12 12 13
9 8 8 8 9 6 5 5 4 5 6 8 5 3 2 3 4 6 6 7 7 7 6 2 3 3 2 10 7 5 6 7 6 8 6 7 10 9 11 9 7 7 9
8 8 7 6 6 5 6 6 5 2 3 5 5 5 3 1 1 4 6 6 5 6 5 4 2 3 3 5 5 8 8 6 9 11 12 10 5 6 6 5 4 4 6
5 6 6 5 4 3 5 7 5 3 2 1 2 2 4 2 6 4 2 3 3 4 3 3 2 2 2 3 6 6 4 7 3 12 10 8 4 5 4 4 2 3 4
7 6 5 5 5 5 8 6 3 1 0 2 0 2 2 6 5 3 2 4 3 4 7 2 1 2 2 1 3 5 6 5 4 5 9 4 1 4 3 3 3 4 7
11 9 6 5 5 9 9 7 4 1 3 2 3 4 4 3 6 3 2 5 4 5 3 5 4 4 3 3 3 5 4 3 4 7 5 2 1 3 1 2 4 5 7
11 8 8 7 6 7 10 7 5 2 4 4 4 8 9 8 6 4 1 6 6 6 8 5 7 9 8 5 2 2 4 7 5 2 4 2 1 3 2 2 4 4 5
8 10 9 9 8 6 11 11 7 3 4 5 4 10 4 7 8 5 1 5 8 9 8 8 8 8 9 8 5 1 3 4 3 3 6 2 3 1 3 3 5 7 5
9 9 9 10 9 10 12 12 8 6 6 5 1 6 8 8 11 5 1 3 8 8 9 14 16 16 14 11 7 8 4 1 1 3 2 4 4 4 1 1 2 5 5
Wind_Direction
205 215 215 213 212 218 230 241 246 245 247 251 256 255 255 249 240 228 197 192 204 202 202 206 204 199 199 196 192 191 194 197 197 196 196 192 190 189 190 185 182 177 172
185 192 206 204 208 212 225 230 238 240 240 242 243 245 247 253 210 199 198 197 203 203 206 205 207 203 206 205 202 201 201 197 201 207 207 211 211 208 210 206 200 195 186
181 191 183 186 200 216 232 249 265 252 238 246 239 250 273 291 282 196 202 200 210 210 213 211 211 204 205 208 209 209 207 203 204 210 213 214 218 219 214 222 206 204 197
201 201 198 208 206 204 218 222 235 233 241 257 276 282 282 283 280 194 173 212 218 222 228 227 228 221 214 211 212 209 208 208 207 211 216 217 219 221 224 216 214 208 195
210 204 222 246 248 231 220 220 237 230 266 284 283 285 291 287 299 146 187 191 199 216 215 226 231 251 241 232 222 216 210 213 211 213 216 220 222 221 221 225 217 210 201
227 210 235 315 260 282 288 243 267 287 272 277 282 285 290 44 82 104 178 190 201 196 183 167 149 130 86 356 258 227 216 221 217 216 218 220 223 228 229 224 223 216 211
211 221 237 297 50 264 275 277 284 269 290 297 286 300 295 60 114 147 191 171 205 220 214 178 171 160 130 248 299 250 243 225 225 223 223 219 224 225 229 230 227 226 220
190 158 265 239 245 259 247 257 240 240 246 207 252 286 311 345 265 165 179 195 220 211 215 211 165 160 126 86 79 255 252 254 234 223 226 223 222 224 225 226 227 226 225
349 295 237 18 315 294 259 286 246 218 225 246 228 227 343 338 322 267 142 189 202 235 255 281 120 102 142 172 23 274 257 253 255 231 227 228 223 223 227 229 224 225 226
338 96 110 102 74 67 44 38 10 159 139 131 345 45 81 151 36 326 30 202 221 248 258 261 250 195 224 219 202 211 223 239 241 238 233 227 226 225 228 230 229 226 226
121 104 98 82 84 67 62 60 49 65 70 109 73 62 64 15 122 222 303 323 305 294 258 250 239 202 208 240 254 264 238 228 235 232 225 233 228 227 230 232 234 238 234
141 114 102 98 83 65 52 37 33 50 56 104 74 67 65 33 340 269 267 301 306 312 298 252 242 237 237 234 245 251 248 221 226 237 230 229 241 230 228 231 229 227 232
146 119 120 103 86 73 53 48 66 75 63 80 79 94 93 86 22 12 321 310 295 321 355 35 225 233 240 207 229 240 240 223 234 238 244 233 238 242 230 230 227 223 230
154 138 122 102 92 79 59 68 64 64 67 83 77 73 96 86 45 21 345 76 41 4 0 13 50 155 242 211 222 224 241 235 240 244 242 237 242 236 236 235 234 234 228
143 145 127 118 113 93 90 89 66 55 65 64 67 58 56 60 44 24 7 15 157 108 7 4 44 9 357 254 227 221 232 240 240 240 236 232 237 230 236 242 251 256 249
142 137 134 137 133 119 102 85 79 53 41 52 67 63 60 66 67 43 53 78 92 149 174 233 312 328 324 309 285 262 252 261 260 242 247 244 237 235 237 246 252 260 254
148 142 152 151 147 146 136 90 97 55 36 21 84 104 57 60 64 53 44 51 54 79 132 308 262 303 314 292 280 260 280 290 274 251 250 250 241 237 237 242 257 264 266
163 160 155 153 155 154 129 116 110 92 75 107 65 89 83 67 53 43 41 41 36 29 57 7 303 324 290 341 292 252 95 5 329 265 263 250 228 231 228 234 242 254 255
164 168 160 158 165 171 153 151 132 118 107 90 91 97 118 89 49 33 43 40 20 20 32 38 330 310 317 13 10 32 17 10 353 10 4 265 233 212 220 228 239 241 249
168 180 185 186 191 189 187 170 136 127 95 90 107 95 96 60 54 66 63 44 33 30 24 27 3 6 357 343 15 17 351 358 9 8 36 40 157 216 227 209 231 236 229
154 169 154 174 153 154 177 159 136 122 89 62 150 109 49 5 202 150 79 350 3 360 6 33 63 35 11 7 16 347 337 329 306 16 5 27 84 104 98 97 142 140 145
167 165 169 179 161 158 153 161 124 130 131 80 91 252 114 106 142 158 105 11 285 305 306 312 7 13 354 335 357 3 346 359 328 7 353 325 42 113 159 186 113 148 143
180 187 190 174 174 181 180 171 158 262 308 295 283 269 274 147 151 171 336 346 342 348 321 228 259 247 273 256 314 330 323 301 275 309 323 272 222 176 182 132 167 175 140
187 194 207 194 183 197 197 194 185 231 289 302 299 280 255 223 196 182 20 2 351 352 19 11 264 271 258 272 258 248 283 297 290 269 359 253 334 233 202 201 198 189 134
190 201 213 200 198 222 200 200 196 234 289 308 346 6 212 213 207 177 61 359 338 318 325 347 351 337 311 287 237 265 343 2 319 304 359 344 8 357 215 228 222 220 195
208 215 222 220 208 210 204 211 200 216 254 260 298 356 7 199 189 185 320 335 322 315 329 332 336 332 320 299 256 212 202 254 284 308 310 1 357 6 260 196 238 230 229